TimeCDT,TemperatureF,Dew PointF,Humidity,Sea Level PressureIn,VisibilityMPH,Wind Direction,Wind SpeedMPH,Gust SpeedMPH,PrecipitationIn,Events,Conditions,WindDirDegrees,DateUTC
12:53 AM,68.0,57.0,68,30.03,9.0,SSW,3.5,-,0.00,,Clear,200,2013-07-12 05:53:00
1:53 AM,68.0,57.0,68,30.02,10.0,South,6.9,-,N/A,,Clear,180,2013-07-12 06:53:00
2:53 AM,68.0,57.0,68,30.02,10.0,South,3.5,-,N/A,,Clear,190,2013-07-12 07:53:00
3:53 AM,68.0,57.0,68,30.02,10.0,South,4.6,-,N/A,,Partly Cloudy,190,2013-07-12 08:53:00
4:53 AM,69.1,57.0,65,30.03,10.0,Variable,6.9,-,N/A,,Mostly Cloudy,0,2013-07-12 09:53:00
5:53 AM,68.0,57.0,68,30.05,10.0,SSW,4.6,-,N/A,,Scattered Clouds,200,2013-07-12 10:53:00
6:53 AM,68.0,57.9,70,30.06,10.0,SSW,6.9,-,N/A,,Scattered Clouds,200,2013-07-12 11:53:00
7:53 AM,71.1,57.9,63,30.06,10.0,SSW,6.9,-,N/A,,Clear,210,2013-07-12 12:53:00
8:53 AM,73.9,59.0,59,30.06,10.0,South,10.4,-,N/A,,Clear,180,2013-07-12 13:53:00
9:53 AM,75.0,59.0,57,30.06,10.0,South,10.4,19.6,N/A,,Clear,190,2013-07-12 14:53:00
10:53 AM,77.0,60.1,56,30.05,10.0,South,11.5,21.9,N/A,,Partly Cloudy,190,2013-07-12 15:53:00
11:53 AM,80.1,60.1,50,30.03,10.0,SSW,12.7,20.7,N/A,,Clear,200,2013-07-12 16:53:00
12:53 PM,82.0,62.1,51,30.00,10.0,SSE,15.0,21.9,N/A,,Clear,150,2013-07-12 17:53:00
1:53 PM,82.0,60.1,47,30.00,10.0,South,12.7,24.2,N/A,,Clear,170,2013-07-12 18:53:00
2:53 PM,84.0,60.1,44,29.99,10.0,South,9.2,21.9,N/A,,Clear,180,2013-07-12 19:53:00
3:53 PM,84.9,60.1,43,29.98,10.0,South,10.4,23.0,N/A,,Clear,180,2013-07-12 20:53:00
4:53 PM,82.9,57.9,42,29.97,10.0,South,15.0,21.9,N/A,,Clear,170,2013-07-12 21:53:00
5:53 PM,82.0,59.0,45,29.97,10.0,South,16.1,24.2,N/A,,Clear,180,2013-07-12 22:53:00
6:53 PM,81.0,60.1,49,29.96,10.0,South,11.5,19.6,N/A,,Clear,170,2013-07-12 23:53:00
7:53 PM,79.0,59.0,50,29.96,10.0,South,10.4,18.4,N/A,,Clear,170,2013-07-13 00:53:00
8:53 PM,75.9,59.0,56,29.96,10.0,South,4.6,-,N/A,,Clear,180,2013-07-13 01:53:00
9:53 PM,75.0,60.1,60,29.96,10.0,South,10.4,-,N/A,,Clear,170,2013-07-13 02:53:00
10:53 PM,73.9,59.0,59,29.96,10.0,South,6.9,-,N/A,,Clear,170,2013-07-13 03:53:00
11:53 PM,73.0,59.0,61,29.98,10.0,South,8.1,-,N/A,,Clear,190,2013-07-13 04:53:00